| time (UTC) | temp F | wind direction | speed MPH | gust MPH | rain 1hr in | rain 24hr in | rain mn in | humidity % | barometer mb |
| 20260506062405 | 51 | 209 | 2.0 | 2.0 | 0.00 | 0.00 | 0.00 | 53 | 1010.9 |
| 20260506061702 | 53 | 337 | 5.0 | 12.0 | 0.00 | 0.00 | 0.00 | 52 | 1010.8 |
| 20260506061012 | 52 | 253 | 2.0 | 3.0 | 0.00 | 0.00 | 0.00 | 58 | 1010.7 |
| 20260506060309 | 53 | 25 | 2.0 | 2.0 | 0.00 | 0.00 | 0.00 | 59 | 1010.6 |
| 20260506051405 | 41 | 300 | 2.0 | 6.0 | 0.00 | 0.00 | 0.00 | 71 | 1010.1 |
| 20260506050702 | 40 | 245 | 1.0 | 3.0 | 0.00 | 0.00 | 0.00 | 73 | 1010.2 |
| 20260506044609 | 38 | 118 | 3.0 | 3.0 | 0.00 | 0.00 | 0.00 | 77 | 1009.9 |
| 20260506043907 | 37 | 49 | 2.0 | 3.0 | 0.00 | 0.00 | 0.00 | 77 | 1009.8 |
| 20260506043203 | 37 | 297 | 2.0 | 6.0 | 0.00 | 0.00 | 0.00 | 77 | 1009.8 |
| 20260506042501 | 37 | 182 | 5.0 | 5.0 | 0.00 | 0.00 | 0.00 | 77 | 1009.7 |
| 20260506041811 | 37 | 116 | 2.0 | 6.0 | 0.00 | 0.00 | 0.00 | 79 | 1009.6 |
| 20260506041107 | 36 | 262 | 2.0 | 5.0 | 0.00 | 0.00 | 0.00 | 81 | 1009.6 |
| 20260506040405 | 36 | 22 | 1.0 | 0.0 | 0.00 | 0.00 | 0.00 | 82 | 1009.7 |
| 20260506035704 | 35 | 22 | 0.0 | 0.0 | 0.00 | 0.00 | 0.00 | 84 | 1009.5 |
| 20260506035003 | 34 | 82 | 0.0 | 1.0 | 0.00 | 0.00 | 0.00 | 84 | 1009.4 |
| 20260506034313 | 34 | 61 | 0.0 | 2.0 | 0.00 | 0.00 | 0.00 | 85 | 1009.3 |
| 20260506033610 | 33 | 66 | 1.0 | 2.0 | 0.00 | 0.00 | 0.00 | 86 | 1009.1 |
| 20260506032910 | 32 | 129 | 0.0 | 0.0 | 0.00 | 0.00 | 0.00 | 87 | 1009.1 |
| 20260506032207 | 32 | 142 | 0.0 | 0.0 | 0.00 | 0.00 | 0.00 | 87 | 1009.0 |
| 20260506031506 | 31 | 249 | 1.0 | 2.0 | 0.00 | 0.00 | 0.00 | 88 | 1008.9 |
| 20260506030805 | 30 | 248 | 0.0 | 0.0 | 0.00 | 0.00 | 0.00 | 88 | 1008.9 |
| 20260506025411 | 29 | 248 | 0.0 | 1.0 | 0.00 | 0.00 | 0.00 | 88 | 1008.8 |
| 20260506024709 | 28 | 248 | 0.0 | 1.0 | 0.00 | 0.00 | 0.00 | 88 | 1008.6 |
| 20260506024007 | 28 | 248 | 0.0 | 0.0 | 0.00 | 0.00 | 0.00 | 87 | 1008.8 |
| 20260506023305 | 29 | 248 | 0.0 | 0.0 | 0.00 | 0.00 | 0.00 | 87 | 1008.7 |
| 20260506022602 | 29 | 248 | 0.0 | 0.0 | 0.00 | 0.00 | 0.00 | 87 | 1008.6 |
| 20260506021912 | 29 | 248 | 0.0 | 1.0 | 0.00 | 0.00 | 0.00 | 86 | 1008.4 |
| 20260506021209 | 30 | 248 | 0.0 | 1.0 | 0.00 | 0.00 | 0.00 | 86 | 1008.3 |
| 20260506020507 | 30 | 248 | 0.0 | 0.0 | 0.00 | 0.00 | 0.00 | 86 | 1008.3 |
| 20260506015805 | 30 | 248 | 0.0 | 0.0 | 0.00 | 0.00 | 0.00 | 86 | 1008.2 |
| 20260506015104 | 30 | 248 | 0.0 | 2.0 | 0.00 | 0.00 | 0.00 | 86 | 1008.3 |
| 20260506014403 | 30 | 248 | 0.0 | 1.0 | 0.00 | 0.00 | 0.00 | 86 | 1008.2 |
| 20260506013712 | 30 | 248 | 0.0 | 0.0 | 0.00 | 0.00 | 0.00 | 85 | 1008.0 |
| 20260506013010 | 31 | 248 | 0.0 | 0.0 | 0.00 | 0.00 | 0.00 | 85 | 1007.9 |
| 20260506012309 | 31 | 248 | 1.0 | 1.0 | 0.00 | 0.00 | 0.00 | 85 | 1008.0 |
| 20260506011607 | 31 | 248 | 0.0 | 1.0 | 0.00 | 0.00 | 0.00 | 84 | 1008.1 |
| 20260506010906 | 31 | 248 | 0.0 | 1.0 | 0.00 | 0.00 | 0.00 | 84 | 1007.9 |
| 20260506010205 | 31 | 248 | 0.0 | 2.0 | 0.00 | 0.00 | 0.00 | 84 | 1007.9 |
| 20260506005503 | 31 | 248 | 0.0 | 2.0 | 0.00 | 0.00 | 0.00 | 84 | 1007.8 |
| 20260506004812 | 31 | 248 | 1.0 | 3.0 | 0.00 | 0.00 | 0.00 | 85 | 1007.7 |
| 20260506004109 | 31 | 248 | 0.0 | 2.0 | 0.00 | 0.00 | 0.00 | 85 | 1007.6 |
| 20260506003408 | 31 | 248 | 0.0 | 1.0 | 0.00 | 0.00 | 0.00 | 84 | 1007.5 |
| 20260506002707 | 31 | 248 | 1.0 | 1.0 | 0.00 | 0.00 | 0.00 | 84 | 1007.4 |
| 20260506002006 | 31 | 248 | 1.0 | 1.0 | 0.00 | 0.00 | 0.00 | 84 | 1007.4 |
| 20260506001304 | 31 | 248 | 0.0 | 1.0 | 0.00 | 0.02 | 0.00 | 84 | 1007.3 |
| 20260506000613 | 30 | 248 | 1.0 | 2.0 | 0.00 | 0.02 | 0.00 | 84 | 1007.2 |
| 20260505235911 | 31 | 248 | 0.0 | 2.0 | 0.00 | 0.02 | 0.00 | 83 | 1007.1 |
| 20260505235209 | 31 | 248 | 0.0 | 2.0 | 0.00 | 0.02 | 0.00 | 83 | 1007.0 |
| 20260505234506 | 31 | 248 | 1.0 | 2.0 | 0.00 | 0.02 | 0.00 | 83 | 1007.2 |
| 20260505233804 | 31 | 248 | 0.0 | 1.0 | 0.00 | 0.02 | 0.00 | 83 | 1007.2 |
| 20260505233101 | 31 | 276 | 1.0 | 2.0 | 0.00 | 0.02 | 0.00 | 83 | 1007.1 |
| 20260505232411 | 31 | 248 | 1.0 | 3.0 | 0.00 | 0.02 | 0.00 | 83 | 1007.1 |
| 20260505231709 | 31 | 248 | 1.0 | 2.0 | 0.00 | 0.02 | 0.00 | 83 | 1007.0 |
| 20260505231007 | 31 | 248 | 1.0 | 2.0 | 0.00 | 0.02 | 0.00 | 83 | 1006.9 |
| 20260505230304 | 31 | 248 | 0.0 | 0.0 | 0.00 | 0.02 | 0.00 | 82 | 1006.7 |
| 20260505225602 | 31 | 248 | 1.0 | 2.0 | 0.00 | 0.02 | 0.00 | 82 | 1006.7 |
| 20260505224912 | 31 | 248 | 0.0 | 1.0 | 0.00 | 0.02 | 0.00 | 82 | 1006.7 |
| 20260505224210 | 31 | 248 | 0.0 | 0.0 | 0.00 | 0.02 | 0.00 | 82 | 1006.6 |
| 20260505223507 | 31 | 248 | 0.0 | 1.0 | 0.00 | 0.02 | 0.00 | 81 | 1006.6 |
| 20260505222804 | 31 | 248 | 0.0 | 2.0 | 0.00 | 0.02 | 0.00 | 81 | 1006.5 |
| 20260505222101 | 31 | 248 | 0.0 | 1.0 | 0.00 | 0.02 | 0.00 | 80 | 1006.6 |
| 20260505221412 | 31 | 248 | 0.0 | 0.0 | 0.00 | 0.02 | 0.00 | 79 | 1006.6 |
| 20260505220709 | 32 | 248 | 0.0 | 1.0 | 0.00 | 0.02 | 0.00 | 79 | 1006.7 |
| 20260505220007 | 32 | 248 | 0.0 | 0.0 | 0.00 | 0.02 | 0.02 | 78 | 1006.6 |
| 20260505215306 | 32 | 248 | 0.0 | 0.0 | 0.00 | 0.02 | 0.02 | 77 | 1006.6 |
| 20260505214604 | 32 | 248 | 0.0 | 0.0 | 0.00 | 0.02 | 0.02 | 77 | 1006.6 |
| 20260505213901 | 32 | 248 | 0.0 | 0.0 | 0.00 | 0.02 | 0.02 | 77 | 1006.5 |
| 20260505213212 | 32 | 248 | 0.0 | 1.0 | 0.00 | 0.02 | 0.02 | 76 | 1006.4 |
| 20260505212509 | 33 | 248 | 0.0 | 0.0 | 0.00 | 0.02 | 0.02 | 75 | 1006.3 |
| 20260505211807 | 33 | 248 | 0.0 | 1.0 | 0.00 | 0.02 | 0.02 | 75 | 1006.3 |
| 20260505211105 | 33 | 248 | 0.0 | 0.0 | 0.00 | 0.02 | 0.02 | 75 | 1006.2 |
| 20260505210403 | 33 | 248 | 0.0 | 0.0 | 0.00 | 0.02 | 0.02 | 74 | 1006.1 |
| 20260505205702 | 33 | 248 | 0.0 | 0.0 | 0.00 | 0.02 | 0.02 | 73 | 1006.0 |
| 20260505205011 | 33 | 248 | 0.0 | 0.0 | 0.00 | 0.02 | 0.02 | 73 | 1005.9 |
| 20260505204309 | 33 | 248 | 0.0 | 0.0 | 0.00 | 0.02 | 0.02 | 73 | 1005.8 |
| 20260505203606 | 33 | 248 | 0.0 | 0.0 | 0.00 | 0.02 | 0.02 | 72 | 1005.7 |
| 20260505202906 | 34 | 248 | 0.0 | 1.0 | 0.00 | 0.02 | 0.02 | 72 | 1005.6 |
| 20260505202205 | 34 | 248 | 0.0 | 2.0 | 0.00 | 0.02 | 0.02 | 72 | 1005.6 |
| 20260505201503 | 33 | 248 | 0.0 | 1.0 | 0.00 | 0.02 | 0.02 | 71 | 1005.6 |
| 20260505200813 | 33 | 248 | 0.0 | 0.0 | 0.00 | 0.02 | 0.02 | 71 | 1005.5 |
| 20260505200112 | 34 | 248 | 0.0 | 0.0 | 0.00 | 0.02 | 0.02 | 70 | 1005.4 |
| 20260505195411 | 34 | 248 | 0.0 | 0.0 | 0.00 | 0.02 | 0.02 | 68 | 1005.4 |
| 20260505194709 | 34 | 248 | 0.0 | 0.0 | 0.00 | 0.02 | 0.02 | 68 | 1005.3 |
| 20260505194006 | 35 | 248 | 0.0 | 0.0 | 0.00 | 0.02 | 0.02 | 66 | 1005.3 |
| 20260505193304 | 35 | 248 | 0.0 | 0.0 | 0.00 | 0.02 | 0.02 | 65 | 1005.3 |
| 20260505192602 | 35 | 248 | 0.0 | 0.0 | 0.00 | 0.02 | 0.02 | 65 | 1005.2 |
| 20260505191911 | 35 | 248 | 0.0 | 0.0 | 0.00 | 0.02 | 0.02 | 65 | 1005.3 |
| 20260505191209 | 36 | 248 | 0.0 | 0.0 | 0.00 | 0.02 | 0.02 | 64 | 1005.3 |
| 20260505190507 | 37 | 248 | 0.0 | 0.0 | 0.00 | 0.02 | 0.02 | 63 | 1005.3 |
| 20260505185805 | 37 | 248 | 0.0 | 0.0 | 0.00 | 0.02 | 0.02 | 62 | 1005.2 |
| 20260505185103 | 38 | 248 | 0.0 | 1.0 | 0.00 | 0.02 | 0.02 | 61 | 1005.2 |
| 20260505184412 | 38 | 248 | 0.0 | 2.0 | 0.00 | 0.02 | 0.02 | 60 | 1005.1 |
| 20260505183711 | 39 | 248 | 0.0 | 1.0 | 0.00 | 0.02 | 0.02 | 59 | 1005.1 |
| 20260505183009 | 39 | 248 | 1.0 | 2.0 | 0.00 | 0.02 | 0.02 | 58 | 1004.9 |
| 20260505182306 | 40 | 248 | 1.0 | 1.0 | 0.00 | 0.02 | 0.02 | 57 | 1004.9 |
| 20260505181604 | 41 | 248 | 1.0 | 1.0 | 0.00 | 0.02 | 0.02 | 56 | 1004.8 |
| 20260505180912 | 41 | 248 | 1.0 | 2.0 | 0.00 | 0.02 | 0.02 | 55 | 1004.8 |
| 20260505180211 | 42 | 248 | 1.0 | 2.0 | 0.00 | 0.02 | 0.02 | 54 | 1004.7 |
| 20260505175511 | 42 | 248 | 1.0 | 2.0 | 0.00 | 0.02 | 0.02 | 54 | 1004.6 |
| 20260505174810 | 43 | 248 | 1.0 | 2.0 | 0.00 | 0.02 | 0.02 | 52 | 1004.5 |
| 20260505174109 | 43 | 248 | 1.0 | 2.0 | 0.00 | 0.02 | 0.02 | 53 | 1004.5 |
| 20260505173405 | 44 | 248 | 0.0 | 1.0 | 0.00 | 0.02 | 0.02 | 52 | 1004.5 |
| 20260505172703 | 44 | 247 | 2.0 | 3.0 | 0.00 | 0.02 | 0.02 | 50 | 1004.4 |
| 20260505172001 | 45 | 248 | 1.0 | 2.0 | 0.00 | 0.02 | 0.02 | 50 | 1004.4 |
| 20260505171311 | 46 | 248 | 2.0 | 2.0 | 0.00 | 0.02 | 0.02 | 49 | 1004.4 |
| 20260505170610 | 46 | 257 | 3.0 | 7.0 | 0.00 | 0.02 | 0.02 | 49 | 1004.3 |
| 20260505165907 | 46 | 353 | 3.0 | 8.0 | 0.00 | 0.02 | 0.02 | 48 | 1004.2 |
| 20260505165205 | 46 | 267 | 3.0 | 5.0 | 0.00 | 0.02 | 0.02 | 48 | 1004.2 |
| 20260505164503 | 46 | 248 | 2.0 | 3.0 | 0.00 | 0.02 | 0.02 | 48 | 1004.1 |
| 20260505163813 | 47 | 266 | 2.0 | 3.0 | 0.00 | 0.02 | 0.02 | 48 | 1004.1 |
| 20260505163111 | 47 | 353 | 2.0 | 7.0 | 0.00 | 0.02 | 0.02 | 47 | 1004.2 |
| 20260505162409 | 47 | 254 | 6.0 | 8.0 | 0.00 | 0.02 | 0.02 | 47 | 1004.3 |
| 20260505161707 | 47 | 10 | 3.0 | 7.0 | 0.00 | 0.02 | 0.02 | 48 | 1004.3 |
| 20260505161006 | 47 | 248 | 2.0 | 3.0 | 0.00 | 0.02 | 0.02 | 50 | 1004.3 |
| 20260505160303 | 47 | 283 | 1.0 | 2.0 | 0.00 | 0.02 | 0.02 | 50 | 1004.2 |
| 20260505152804 | 48 | 248 | 1.0 | 3.0 | 0.00 | 0.02 | 0.02 | 49 | 1004.1 |
| 20260505152102 | 48 | 250 | 2.0 | 3.0 | 0.00 | 0.02 | 0.02 | 49 | 1004.1 |
| 20260505151413 | 49 | 17 | 3.0 | 12.0 | 0.00 | 0.02 | 0.02 | 49 | 1004.1 |
| 20260505150711 | 49 | 274 | 3.0 | 5.0 | 0.00 | 0.02 | 0.02 | 49 | 1003.9 |
| 20260505140402 | 62 | 248 | 5.0 | 3.0 | 0.00 | 0.02 | 0.02 | 38 | 1003.9 |
| 20260505130104 | 51 | 282 | 10.0 | 10.0 | 0.00 | 0.02 | 0.02 | 50 | 1003.4 |
| 20260505124711 | 53 | 273 | 6.0 | 12.0 | 0.00 | 0.02 | 0.02 | 48 | 1003.4 |
| 20260505124009 | 54 | 340 | 3.0 | 6.0 | 0.00 | 0.02 | 0.02 | 48 | 1003.3 |
| 20260505123308 | 56 | 342 | 3.0 | 7.0 | 0.00 | 0.02 | 0.02 | 50 | 1003.2 |
| 20260505122605 | 55 | 251 | 5.0 | 8.0 | 0.00 | 0.02 | 0.02 | 52 | 1003.2 |
| 20260505121903 | 52 | 345 | 3.0 | 6.0 | 0.00 | 0.02 | 0.02 | 56 | 1003.2 |
| 20260505121212 | 52 | 24 | 5.0 | 6.0 | 0.00 | 0.02 | 0.02 | 55 | 1003.1 |
| 20260505120509 | 54 | 354 | 3.0 | 5.0 | 0.00 | 0.02 | 0.02 | 52 | 1002.9 |
| 20260505115807 | 56 | 340 | 6.0 | 9.0 | 0.00 | 0.02 | 0.02 | 53 | 1002.8 |
| 20260505115103 | 54 | 207 | 6.0 | 10.0 | 0.00 | 0.02 | 0.02 | 54 | 1002.6 |
| 20260505114413 | 54 | 356 | 5.0 | 7.0 | 0.00 | 0.04 | 0.02 | 54 | 1002.5 |
| 20260505113710 | 56 | 286 | 5.0 | 5.0 | 0.00 | 0.04 | 0.02 | 53 | 1002.4 |
| 20260505113008 | 54 | 278 | 5.0 | 8.0 | 0.00 | 0.06 | 0.02 | 52 | 1002.3 |
| 20260505112307 | 54 | 0 | 3.0 | 9.0 | 0.00 | 0.06 | 0.02 | 55 | 1002.2 |
| 20260505111603 | 54 | 269 | 7.0 | 13.0 | 0.00 | 0.06 | 0.02 | 55 | 1002.2 |
| 20260505110901 | 51 | 281 | 5.0 | 10.0 | 0.00 | 0.06 | 0.02 | 59 | 1002.1 |
| 20260505110210 | 52 | 259 | 2.0 | 3.0 | 0.00 | 0.08 | 0.02 | 58 | 1001.9 |
| 20260505102008 | 53 | 347 | 6.0 | 12.0 | 0.00 | 0.10 | 0.02 | 57 | 1001.6 |
| 20260505101306 | 55 | 248 | 5.0 | 13.0 | 0.00 | 0.10 | 0.02 | 59 | 1001.4 |
| 20260505100603 | 53 | 305 | 2.0 | 5.0 | 0.00 | 0.10 | 0.02 | 64 | 1001.4 |
| 20260505095913 | 52 | 265 | 5.0 | 15.0 | 0.00 | 0.10 | 0.02 | 64 | 1001.3 |
| 20260505095211 | 51 | 19 | 5.0 | 7.0 | 0.00 | 0.10 | 0.02 | 68 | 1001.2 |
| 20260505094509 | 49 | 18 | 3.0 | 9.0 | 0.00 | 0.10 | 0.02 | 68 | 1001.0 |
| 20260505093807 | 49 | 329 | 9.0 | 12.0 | 0.00 | 0.10 | 0.02 | 67 | 1001.0 |
| 20260505093104 | 50 | 249 | 12.0 | 16.0 | 0.00 | 0.10 | 0.02 | 67 | 1000.8 |
| 20260505092401 | 51 | 234 | 6.0 | 10.0 | 0.00 | 0.10 | 0.02 | 64 | 1000.7 |
| 20260505091711 | 53 | 237 | 3.0 | 10.0 | 0.00 | 0.10 | 0.02 | 60 | 1000.2 |
| 20260505091008 | 54 | 345 | 8.0 | 12.0 | 0.00 | 0.10 | 0.02 | 58 | 1000.2 |
| 20260505090306 | 57 | 330 | 5.0 | 7.0 | 0.00 | 0.10 | 0.02 | 59 | 1000.2 |
| 20260505085603 | 57 | 22 | 3.0 | 2.0 | 0.00 | 0.10 | 0.02 | 64 | 1000.0 |
| 20260505084901 | 55 | 17 | 1.0 | 3.0 | 0.00 | 0.10 | 0.02 | 65 | 999.9 |
| 20260505084211 | 54 | 333 | 1.0 | 5.0 | 0.00 | 0.10 | 0.02 | 65 | 999.9 |
| 20260505083508 | 54 | 20 | 1.0 | 5.0 | 0.00 | 0.10 | 0.02 | 63 | 999.9 |
| 20260505082805 | 56 | 18 | 2.0 | 6.0 | 0.00 | 0.10 | 0.02 | 62 | 999.9 |
| 20260505082102 | 57 | 6 | 2.0 | 5.0 | 0.00 | 0.10 | 0.02 | 61 | 999.8 |
| 20260505081412 | 58 | 22 | 1.0 | 2.0 | 0.00 | 0.10 | 0.02 | 58 | 1000.0 |
| 20260505080710 | 62 | 4 | 1.0 | 7.0 | 0.00 | 0.10 | 0.02 | 57 | 999.9 |
| 20260505080007 | 64 | 5 | 2.0 | 6.0 | 0.00 | 0.10 | 0.02 | 57 | 999.9 |
| 20260505075305 | 63 | 14 | 2.0 | 7.0 | 0.00 | 0.10 | 0.02 | 61 | 999.8 |
| 20260505074604 | 59 | 18 | 2.0 | 5.0 | 0.00 | 0.10 | 0.02 | 64 | 999.7 |
| 20260505073913 | 58 | 5 | 1.0 | 6.0 | 0.00 | 0.10 | 0.02 | 65 | 999.8 |
| 20260505073210 | 57 | 344 | 2.0 | 3.0 | 0.00 | 0.10 | 0.02 | 63 | 999.7 |
| 20260505072507 | 59 | 264 | 2.0 | 5.0 | 0.00 | 0.10 | 0.02 | 62 | 999.8 |
| 20260505071805 | 60 | 347 | 3.0 | 5.0 | 0.00 | 0.10 | 0.02 | 61 | 999.8 |
| 20260505071103 | 59 | 0 | 2.0 | 6.0 | 0.00 | 0.10 | 0.02 | 64 | 999.7 |
| 20260505070411 | 57 | 350 | 3.0 | 5.0 | 0.00 | 0.10 | 0.02 | 68 | 999.6 |
| 20260505065709 | 55 | 13 | 3.0 | 5.0 | 0.00 | 0.10 | 0.02 | 69 | 999.5 |
| 20260505065006 | 54 | 354 | 3.0 | 5.0 | 0.00 | 0.10 | 0.02 | 73 | 999.3 |
| 20260505064305 | 52 | 343 | 3.0 | 6.0 | 0.00 | 0.10 | 0.02 | 75 | 999.3 |
| 20260505063603 | 51 | 0 | 3.0 | 5.0 | 0.00 | 0.10 | 0.02 | 77 | 999.3 |